Powrót do katalogu

STARLINK-31279

AktywnyŁącznośćVLEO
NORAD 59086·PAYLOAD·🇺🇸 United States

Wystrzelony Feb 29, 2024 z Cape Canaveral Space Force Station

Loading…

Następne Przeloty (najbliższe 24 godziny)

TLE

ŚwieżeSource: CelesTrak SupGP

Epoka: Sep 14, 2026, 20:50 UTC

1 59086C 24041N   26257.86854167 -.00031212  00000+0 -11305-2 0  2575
2 59086  43.0022 322.6662 0001434 272.6797 313.4414 15.27594813    16

Śledź STARLINK-31279 w czasie rzeczywistym z AllMySat

Download on the App Store